This is the latest recevied weather packets stored in our database for station/object DB0ADS-6. If no packets are shown the sender has not sent any weather packets the latest 10 day(s).
| Time | Temp. | Humidity | Pressure | Rain* | Wind** | Luminosity | Snow |
|---|---|---|---|---|---|---|---|
| 1777644960 | 20° C | 32% | 1024.3 hPa | 0 mm | - | - | - |
| 1777644658 | 19.44° C | 33% | 1024.4 hPa | 0 mm | - | - | - |
| 1777644357 | 20° C | 33% | 1024.5 hPa | 0 mm | - | - | - |
| 1777643753 | 20° C | 31% | 1024.6 hPa | 0 mm | - | - | - |
| 1777643452 | 20° C | 34% | 1024.6 hPa | 0 mm | - | - | - |
| 1777643172 | 19.44° C | 33% | 1024.7 hPa | 0 mm | - | - | - |
| 1777642849 | 20° C | 32% | 1024.8 hPa | 0 mm | - | - | - |
| 1777642547 | 20.56° C | 32% | 1024.9 hPa | 0 mm | - | - | - |
| 1777642245 | 20° C | 32% | 1024.8 hPa | 0 mm | - | - | - |
| 1777641943 | 20° C | 33% | 1024.9 hPa | 0 mm | - | - | - |
| 1777641641 | 19.44° C | 33% | 1025 hPa | 0 mm | - | - | - |
| 1777641340 | 19.44° C | 33% | 1025 hPa | 0 mm | - | - | - |
| 1777639831 | 19.44° C | 34% | 1025.4 hPa | 0 mm | - | - | - |
| 1777639248 | 18.89° C | 34% | 1025.5 hPa | 0 mm | - | - | - |
| 1777638343 | 19.44° C | 34% | 1025.6 hPa | 0 mm | - | - | - |
| 1777638020 | 18.33° C | 35% | 1025.5 hPa | 0 mm | - | - | - |
| 1777637417 | 18.89° C | 34% | 1025.6 hPa | 0 mm | - | - | - |
| 1777637175 | 19.44° C | 33% | 1025.6 hPa | 0 mm | - | - | - |
| 1777636873 | 18.89° C | 34% | 1025.6 hPa | 0 mm | - | - | - |
| 1777636572 | 18.33° C | 36% | 1025.7 hPa | 0 mm | - | - | - |
| 1777636270 | 17.78° C | 35% | 1025.7 hPa | 0 mm | - | - | - |
| 1777635687 | 18.89° C | 34% | 1025.9 hPa | 0 mm | - | - | - |
| 1777635386 | 18.33° C | 34% | 1025.9 hPa | 0 mm | - | - | - |
| 1777635063 | 17.78° C | 35% | 1025.9 hPa | 0 mm | - | - | - |
| 1777634761 | 17.78° C | 35% | 1026 hPa | 0 mm | - | - | - |
* Rain latest hour (hover to see other rain measurements)
** Current wind speed in m/s (hover to see current wind gust speed)